Regional Weather Roundup
Issued by NWS

Home | Current Version | Previous Version | Graphics & Text | Print | Product List | Glossary On
Versions: 1 2 3 4 5 6 7 8 9 10 11 12 13 14 15 16 17 18 19 20 21 22 23 24 25 26 27 28 29 30 31 32 33 34 35 36 37 38 39 40 41 42 43 44 45 46 47 48 49 50
257
ASUS45 KSLC 231710
RWRUT

UTAH REGIONAL WEATHER ROUNDUP
NATIONAL WEATHER SERVICE SALT LAKE CITY UT
1000 AM MST THU FEB 23 2017

UTZ001>011-023>025-231800-

NORTHERN UTAH

CITY           SKY/WX    TMP DP  RH WIND       PRES   REMARKS
BRIGHAM CITY     N/A     32  23  70 SW7       29.74R WCI  26
DUGWAY         LGT SNOW  28  26  94 N8        29.80R WCI  20
HILL AFB       CLOUDY    28  22  76 W14G21    29.73R WCI  17
LOGAN          LGT SNOW  31  26  82 E3        29.71R
OGDEN          CLOUDY    29  22  75 W13       29.74R WCI  19
SALT LAKE CITY FLURRIES  30  25  81 W16       29.77R WCI  19
TOOELE VALLEY  CLOUDY    30  27  86 E5        29.79R WCI  25
WENDOVER       PTSUNNY   32  12  43 W5        29.79R WCI  27
HEBER CITY     CLOUDY    27  18  69 E3        29.68R HAZE
WEST JORDAN    CLOUDY    29  29 100 S3        29.78R VSB 1

$$

UTZ011>015-024>027-231800-

CENTRAL/NORTHEAST UTAH

CITY           SKY/WX    TMP DP  RH WIND       PRES   REMARKS
PROVO AIRPORT  FLURRIES  28  25  86 W18       29.78R WCI  16
MOAB/CANYONLAN SUNNY     38  14  37 W21G29    29.69S WCI  28
DELTA          CLOUDY    27  23  86 S13       29.82R WCI  16
PRICE          PTSUNNY   29  11  47 VRB5      29.66R WCI  24
RICHFIELD      MOSUNNY   28  12  50 CALM      29.81R
ROOSEVELT      CLOUDY    30  19  64 W14       29.64R WCI  20
VERNAL         LGT SNOW  25  23  92 E6        29.62R FOG     WCI  18

$$

UTZ013>016-019>022-027-231800-

SOUTHERN UTAH

CITY           SKY/WX    TMP DP  RH WIND       PRES   REMARKS
BRYCE CANYON   SUNNY     20   4  50 W18G29    29.73S WCI   5
CEDAR CITY     MOSUNNY   25  11  55 SE6       29.83R WCI  18
MILFORD        MOSUNNY   22  13  68 S8        29.83R WCI  12
ST GEORGE      PTSUNNY   42  13  30 W6        29.92S
HANKSVILLE     SUNNY     37   5  25 W17G25    29.77R WCI  28
KANAB          MOSUNNY   37  14  38 SW12G17   29.89R WCI  30
BLANDING       MOSUNNY   35   6  29 SW15G25   29.79R WCI  25

$$

REGIONAL REPORTS     COLORADO/ARIZONA

CITY           SKY/WX    TMP DP  RH WIND       PRES   REMARKS
CRAIG, CO      LGT SNOW  25  18  74 W18       29.59R WCI  11
GRAND JUNCTION MOSUNNY   38  11  32 W14G23    29.67R WCI  30
RIFLE, CO      FLURRIES  29  23  78 W17G28    29.62R WCI  17
MONTROSE, CO   SUNNY     34  14  43 W26G37    29.67R WCI  21
CORTEZ, CO     MOSUNNY   36  18  48 W17G24    29.73R WCI  26
COLORADO CITY    N/A     37  14  38 W14       29.90R WCI  29
PAGE, AZ       SUNNY     41   9  26 W10G22    29.82R
GRAND CANYON   SUNNY     29  16  58 W13G20    29.83S WCI  19
KINGMAN, AZ    SUNNY     45  13  27 NW3       29.94R
FLAGSTAFF, AZ  SUNNY     30  13  49 W10G18    29.83R WCI  21

$$

REGIONAL REPORTS    NEVADA/IDAHO/WYOMING

CITY           SKY/WX    TMP DP  RH WIND       PRES   REMARKS
LAS VEGAS, NV  MOSUNNY   49   7  18 NW13      29.95R
ELY, NY        CLOUDY    22  13  68 W12       29.84R WCI  10
ELKO, NV       FLURRIES  25  16  68 W7        29.89R WCI  17
POCATELLO, ID  CLOUDY    26  22  84 SW20      29.71R WCI  12
BURLEY, ID     HVY SNOW  28  23  81 W15G30    29.74S VSB 1/4 WCI  16
FORT BRIDGER,  LGT SNOW  21  20  96 W20       29.62S WCI   6
EVANSTON, WY   CLOUDY    18  13  80 SW12      29.61R WCI   5
ROCK SPRINGS,  HVY SNOW  22  18  85 NW25G31   29.55R VSB 1/4 WCI   5

$$




USA.gov is the U.S. government's official web portal to all federal, state and local government web resources and services.